This is the latest recevied weather packets stored in our database for station/object WZ8H. If no packets are shown the sender has not sent any weather packets the latest 10 day(s).
| Time | Temp. | Humidity | Pressure | Rain* | Wind** | Luminosity | Snow |
|---|---|---|---|---|---|---|---|
| 1778049497 | 7.22° C | 94% | 1008.4 hPa | 1.52 mm | - | 0 W/m² | - |
| 1778049195 | 7.22° C | 94% | 1008 hPa | 1.78 mm | - | 0 W/m² | - |
| 1778048872 | 7.22° C | 94% | 1007.8 hPa | 2.03 mm | - | 0 W/m² | - |
| 1778048544 | 7.22° C | 94% | 1007.7 hPa | 2.29 mm | - | 0 W/m² | - |
| 1778048237 | 7.78° C | 94% | 1007.8 hPa | 2.29 mm | - | 0 W/m² | - |
| 1778047936 | 7.78° C | 94% | 1007.8 hPa | 2.29 mm | - | 0 W/m² | - |
| 1778047631 | 7.78° C | 95% | 1007.6 hPa | 2.54 mm | - | 0 W/m² | - |
| 1778047333 | 7.78° C | 95% | 1007.7 hPa | 2.29 mm | - | 0 W/m² | - |
| 1778047012 | 7.78° C | 94% | 1007.8 hPa | 2.29 mm | - | 0 W/m² | - |
| 1778046714 | 7.78° C | 94% | 1007.9 hPa | 2.29 mm | - | 0 W/m² | - |
| 1778046399 | 7.78° C | 94% | 1008.1 hPa | 2.54 mm | - | 0 W/m² | - |
| 1778046105 | 8.33° C | 94% | 1008.3 hPa | 2.29 mm | - | 0 W/m² | - |
| 1778045782 | 8.33° C | 95% | 1008.1 hPa | 2.29 mm | - | 0 W/m² | - |
| 1778045468 | 8.33° C | 95% | 1007.9 hPa | 2.03 mm | - | 0 W/m² | - |
| 1778045167 | 8.89° C | 95% | 1007.8 hPa | 2.03 mm | - | 0 W/m² | - |
| 1778044868 | 8.89° C | 95% | 1007.8 hPa | 2.03 mm | - | 0 W/m² | - |
| 1778044569 | 8.89° C | 95% | 1007.9 hPa | 1.78 mm | - | 0 W/m² | - |
| 1778044273 | 8.89° C | 95% | 1007.9 hPa | 1.78 mm | - | 0 W/m² | - |
| 1778043946 | 8.89° C | 95% | 1008 hPa | 1.78 mm | - | 0 W/m² | - |
| 1778043631 | 8.89° C | 95% | 1007.9 hPa | 1.52 mm | - | 0 W/m² | - |
| 1778043307 | 8.89° C | 95% | 1008 hPa | 1.52 mm | - | 0 W/m² | - |
| 1778043008 | 8.89° C | 95% | 1008.1 hPa | 1.02 mm | - | 0 W/m² | - |
| 1778042705 | 8.89° C | 95% | 1008 hPa | 1.27 mm | - | 0 W/m² | - |
| 1778042405 | 8.89° C | 95% | 1008 hPa | 1.02 mm | - | 0 W/m² | - |
| 1778042085 | 8.89° C | 95% | 1008 hPa | 1.27 mm | - | 0 W/m² | - |
* Rain latest hour (hover to see other rain measurements)
** Current wind speed in m/s (hover to see current wind gust speed)